GW5672 Weather Reports


time (UTC)temp
C
wind
direction
speed
KPH
gust
KPH
rain 1hr
cm
rain 24hr
cm
rain mn
cm
humidity
%
barometer
mb
20260906124410 19 346 3.2 3.2 0.00 0.00 0.00 98 1018.6
20260906123910 19 313 0.0 1.6 0.00 0.00 0.00 98 1018.6
20260906123404 18 299 1.6 3.2 0.00 0.00 0.00 98 1018.4
20260906122903 18 283 1.6 3.2 0.00 0.00 0.00 98 1018.6
20260906122358 18 44 0.0 1.6 0.00 0.00 0.00 98 1018.4
20260906121855 18 343 1.6 3.2 0.00 0.00 0.00 98 1018.4
20260906121351 18 256 0.0 3.2 0.00 0.00 0.00 98 1018.4
20260906120847 18 325 1.6 3.2 0.00 0.00 0.00 98 1018.5
20260906120343 18 348 1.6 3.2 0.00 0.00 0.00 98 1018.4
20260906115839 18 342 0.0 1.6 0.00 0.00 0.00 98 1018.1
20260906115334 18 44 0.0 1.6 0.00 0.00 0.00 98 1018.0
20260906114833 18 350 3.2 3.2 0.00 0.00 0.00 98 1017.9
20260906114328 18 38 0.0 3.2 0.00 0.00 0.00 98 1017.8
20260906113824 18 30 0.0 3.2 0.00 0.00 0.00 98 1017.8
20260906113323 18 315 0.0 3.2 0.00 0.00 0.00 98 1017.6
20260906112818 18 76 0.0 1.6 0.00 0.00 0.00 98 1017.7
20260906112314 18 38 0.0 1.6 0.00 0.00 0.00 98 1017.5
20260906111814 18 309 0.0 3.2 0.00 0.00 0.00 98 1017.6
20260906111313 18 16 1.6 3.2 0.00 0.00 0.00 98 1017.8
20260906110809 18 8 0.0 1.6 0.00 0.00 0.00 98 1017.7
20260906110305 18 0 0.0 1.6 0.00 0.00 0.00 98 1017.4
20260906105803 18 38 0.0 3.2 0.00 0.00 0.00 98 1017.6
20260906105259 18 66 0.0 1.6 0.00 0.00 0.00 98 1017.6
20260906104754 18 63 0.0 3.2 0.00 0.00 0.00 98 1017.5
20260906104254 18 61 1.6 3.2 0.00 0.00 0.00 98 1017.5
20260906103752 18 315 0.0 3.2 0.00 0.00 0.00 98 1017.5
20260906103251 18 42 0.0 3.2 0.00 0.00 0.00 98 1017.4
20260906102747 18 50 0.0 3.2 0.00 0.00 0.00 98 1017.4
20260906102246 18 0 0.0 3.2 0.00 0.00 0.00 98 1017.3
20260906101741 18 12 1.6 4.8 0.00 0.00 0.00 98 1017.3
20260906101236 18 308 0.0 3.2 0.00 0.00 0.00 98 1017.3
20260906100731 18 33 1.6 3.2 0.00 0.00 0.00 98 1017.4
20260906100231 18 354 0.0 3.2 0.00 0.00 0.00 98 1017.2
20260906095727 18 94 1.6 3.2 0.00 0.00 0.00 98 1017.0
20260906095221 18 359 1.6 3.2 0.00 0.00 0.00 98 1017.3
20260906094720 18 64 1.6 3.2 0.00 0.00 0.00 98 1017.2
20260906094216 18 2 0.0 3.2 0.00 0.00 0.00 98 1017.2
20260906093712 18 8 3.2 3.2 0.00 0.00 0.00 98 1017.1
20260906093208 18 17 1.6 3.2 0.00 0.00 0.00 98 1017.2
20260906092703 18 347 1.6 3.2 0.00 0.00 0.00 98 1017.1
20260906092202 18 331 0.0 3.2 0.00 0.00 0.00 98 1017.0
20260906091658 18 35 0.0 3.2 0.00 0.00 0.00 98 1016.8
20260906091154 18 309 0.0 3.2 0.00 0.00 0.00 98 1016.9
20260906090651 18 352 1.6 3.2 0.00 0.00 0.00 98 1017.0
20260906090150 18 324 0.0 3.2 0.00 0.00 0.00 98 1016.9
20260906085649 18 341 0.0 3.2 0.00 0.00 0.00 97 1017.0
20260906085148 18 6 3.2 3.2 0.00 0.00 0.00 97 1016.9
20260906084643 18 41 1.6 4.8 0.00 0.00 0.00 97 1016.9
20260906084142 18 341 0.0 3.2 0.00 0.00 0.00 97 1017.1
20260906083637 18 339 1.6 3.2 0.00 0.00 0.00 97 1017.0
20260906083132 18 2 0.0 3.2 0.00 0.00 0.00 97 1016.9
20260906082628 18 61 0.0 3.2 0.00 0.00 0.00 97 1016.9
20260906082123 18 21 0.0 3.2 0.00 0.00 0.00 97 1017.0
20260906081619 18 34 0.0 3.2 0.00 0.00 0.00 97 1017.0
20260906081115 18 17 0.0 3.2 0.00 0.00 0.00 97 1016.9
20260906080611 18 60 0.0 1.6 0.00 0.00 0.00 97 1016.8
20260906080107 18 307 0.0 1.6 0.00 0.00 0.00 97 1016.9
20260906075606 18 129 0.0 1.6 0.00 0.00 0.00 97 1016.7
20260906075101 18 89 0.0 0.0 0.00 0.00 0.00 97 1016.7
20260906074556 18 325 0.0 1.6 0.00 0.00 0.00 97 1017.0
20260906074055 18 12 0.0 0.0 0.00 0.00 0.00 97 1016.8
20260906073550 18 53 0.0 1.6 0.00 0.00 0.00 97 1016.9
20260906073046 18 341 0.0 1.6 0.00 0.00 0.00 97 1017.0
20260906072541 18 50 0.0 1.6 0.00 0.00 0.00 97 1016.9
20260906072037 18 306 0.0 1.6 0.00 0.00 0.00 97 1016.8
20260906071533 18 72 0.0 1.6 0.00 0.00 0.00 97 1017.0
20260906071028 18 49 0.0 1.6 0.00 0.00 0.00 97 1017.0
20260906070524 18 55 0.0 0.0 0.00 0.00 0.00 96 1016.9
20260906070014 19 164 0.0 0.0 0.00 0.00 0.00 97 1016.9
20260906065513 19 123 0.0 1.6 0.00 0.00 0.00 96 1017.0
20260906065009 19 52 0.0 0.0 0.00 0.00 0.00 96 1017.1
20260906064504 19 32 0.0 1.6 0.00 0.00 0.00 96 1017.1
20260906063959 19 32 1.6 3.2 0.00 0.00 0.00 96 1016.9
20260906063455 19 310 0.0 1.6 0.00 0.00 0.00 96 1016.9
20260906062955 19 335 0.0 3.2 0.00 0.00 0.00 96 1017.1
20260906062450 19 25 0.0 1.6 0.00 0.00 0.00 96 1017.1
20260906061945 20 294 0.0 3.2 0.00 0.00 0.00 96 1016.9
20260906061442 20 7 0.0 1.6 0.00 0.00 0.00 96 1016.9
20260906060941 20 135 0.0 0.0 0.00 0.00 0.00 96 1016.9
20260906060438 20 37 0.0 0.0 0.00 0.00 0.00 96 1017.1
20260906055935 20 0 0.0 1.6 0.00 0.00 0.00 95 1017.0
20260906055430 20 89 0.0 0.0 0.00 0.00 0.00 95 1016.9
20260906054925 20 31 0.0 1.6 0.00 0.00 0.00 95 1017.0
20260906054420 20 309 0.0 3.2 0.00 0.00 0.00 95 1017.0
20260906053916 20 298 0.0 1.6 0.00 0.00 0.00 95 1017.0
20260906053412 20 309 0.0 1.6 0.00 0.00 0.00 94 1016.8
20260906052908 20 290 0.0 1.6 0.00 0.00 0.00 94 1016.9
20260906052404 20 27 0.0 1.6 0.00 0.00 0.00 94 1016.8
20260906051901 20 336 0.0 3.2 0.00 0.00 0.00 94 1016.7
20260906051400 20 37 0.0 1.6 0.00 0.00 0.00 93 1016.6
20260906050856 21 3 1.6 3.2 0.00 0.00 0.00 93 1016.6
20260906050351 21 5 3.2 3.2 0.00 0.00 0.00 93 1016.7
20260906045850 21 348 3.2 4.8 0.00 0.00 0.00 93 1016.6
20260906045349 21 23 1.6 4.8 0.00 0.00 0.00 92 1016.6
20260906044845 21 86 1.6 4.8 0.00 0.00 0.00 92 1016.2
20260906044345 21 50 3.2 6.4 0.00 0.00 0.00 92 1016.2
20260906043841 21 4 1.6 3.2 0.00 0.00 0.00 92 1016.2
20260906043337 21 357 4.8 6.4 0.00 0.00 0.00 93 1016.3
20260906042832 21 303 1.6 3.2 0.00 0.00 0.00 93 1016.4
20260906042331 21 341 1.6 3.2 0.00 0.00 0.00 93 1016.2
20260906041826 21 345 3.2 4.8 0.00 0.00 0.00 93 1016.1
20260906041322 21 337 3.2 4.8 0.00 0.00 0.00 93 1015.9
20260906040822 21 0 0.0 6.4 0.00 0.00 0.00 93 1015.9
20260906040317 21 350 0.0 3.2 0.00 0.00 0.00 93 1016.0
20260906035813 21 342 4.8 4.8 0.00 0.00 0.00 93 1015.8
20260906035308 21 356 3.2 4.8 0.00 0.00 0.00 93 1016.0
20260906034803 21 131 1.6 3.2 0.00 0.00 0.00 93 1016.0
20260906034303 21 5 0.0 3.2 0.00 0.00 0.00 93 1015.8
20260906033759 21 111 0.0 3.2 0.00 0.00 0.00 93 1016.1
20260906033258 21 339 3.2 4.8 0.00 0.00 0.00 93 1015.9
20260906032755 21 323 0.0 6.4 0.00 0.00 0.00 93 1015.9
20260906032255 20 334 1.6 3.2 0.00 0.00 0.00 93 1015.8
20260906031750 20 353 3.2 4.8 0.00 0.00 0.00 92 1015.9
20260906031247 20 339 3.2 4.8 0.00 0.00 0.00 92 1015.7
20260906030746 20 13 1.6 6.4 0.00 0.00 0.00 92 1015.8
20260906030241 20 0 0.0 4.8 0.00 0.00 0.00 91 1015.7
20260906025741 21 297 8.0 8.0 0.00 0.00 0.00 91 1015.9
20260906025235 21 350 4.8 4.8 0.00 0.00 0.00 91 1015.8
20260906024734 21 357 3.2 6.4 0.00 0.00 0.00 91 1015.9
20260906024233 21 44 0.0 6.4 0.00 0.00 0.00 90 1015.9
20260906023729 21 349 1.6 4.8 0.00 0.00 0.00 90 1015.8
20260906023225 21 347 1.6 4.8 0.00 0.00 0.00 90 1015.8
20260906022720 21 9 1.6 8.0 0.00 0.00 0.00 89 1015.6
20260906022215 21 236 1.6 6.4 0.00 0.00 0.00 89 1015.7
20260906021711 21 69 3.2 6.4 0.00 0.00 0.00 89 1015.7
20260906021210 21 4 3.2 6.4 0.00 0.00 0.00 89 1016.0
20260906020705 21 353 3.2 3.2 0.00 0.00 0.00 89 1015.8
20260906020200 21 89 1.6 3.2 0.00 0.00 0.00 89 1015.8
20260906015700 21 14 1.6 4.8 0.00 0.00 0.00 89 1015.8
20260906015158 21 15 3.2 4.8 0.00 0.00 0.00 89 1015.9
20260906014658 21 89 3.2 3.2 0.00 0.00 0.00 89 1015.9
20260906014154 21 319 0.0 6.4 0.00 0.00 0.00 89 1015.9
20260906013650 21 3 4.8 4.8 0.00 0.00 0.00 89 1015.8
20260906013145 21 116 1.6 6.4 0.00 0.00 0.00 89 1015.8
20260906012645 21 93 6.4 6.4 0.00 0.00 0.00 89 1015.8
20260906012145 21 342 4.8 6.4 0.00 0.00 0.00 89 1015.7
20260906011641 21 339 3.2 3.2 0.00 0.00 0.00 89 1015.8
20260906011136 21 10 4.8 8.0 0.00 0.00 0.00 89 1015.7
20260906010631 21 341 4.8 8.0 0.00 0.00 0.00 89 1015.8
20260906010128 21 17 3.2 6.4 0.00 0.00 0.00 89 1015.7
20260906005627 21 359 6.4 8.0 0.00 0.00 0.00 89 1015.7
20260906005126 21 357 3.2 6.4 0.00 0.00 0.00 89 1015.6
20260906004626 21 66 3.2 9.7 0.00 0.00 0.00 89 1015.3
20260906004120 21 349 3.2 8.0 0.00 0.00 0.00 89 1015.6
20260906003616 22 354 3.2 6.4 0.00 0.00 0.00 88 1015.4
20260906003112 22 121 6.4 8.0 0.00 0.00 0.00 88 1015.4
20260906002612 22 339 4.8 6.4 0.00 0.00 0.00 88 1015.3
20260906002107 22 357 0.0 4.8 0.00 0.00 0.00 87 1015.1
20260906001557 22 70 3.2 9.7 0.00 0.00 0.00 87 1015.3
20260906001056 22 51 3.2 9.7 0.00 0.00 0.00 86 1015.2
20260906000553 22 20 1.6 4.8 0.00 0.00 0.00 86 1015.2
20260906000048 22 116 0.0 6.4 0.00 0.00 0.00 86 1015.3
20260905235547 22 357 3.2 9.7 0.00 0.00 0.00 86 1015.3
20260905235042 22 352 3.2 6.4 0.00 0.00 0.00 86 1015.4
20260905234537 22 348 6.4 9.7 0.00 0.00 0.00 86 1015.2
20260905234032 22 315 6.4 8.0 0.00 0.00 0.00 87 1015.3
20260905233532 22 353 3.2 6.4 0.00 0.00 0.00 87 1015.4
20260905233032 22 331 3.2 9.7 0.00 0.00 0.00 87 1015.4
20260905232528 22 355 3.2 9.7 0.00 0.00 0.00 87 1015.3
20260905232023 22 316 0.0 9.7 0.00 0.00 0.00 87 1015.2
20260905231518 22 357 3.2 8.0 0.00 0.00 0.00 87 1015.3
20260905231015 22 46 3.2 9.7 0.00 0.00 0.00 86 1015.2
20260905230514 22 340 6.4 9.7 0.00 0.00 0.00 86 1015.1
20260905230012 22 351 3.2 14.5 0.00 0.00 0.00 85 1015.1
20260905225507 23 0 4.8 6.4 0.00 0.00 0.00 85 1015.2
20260905225002 23 328 3.2 8.0 0.00 0.00 0.00 84 1015.1
20260905224457 23 345 3.2 9.7 0.00 0.00 0.00 83 1015.0
20260905223956 23 281 1.6 4.8 0.00 0.00 0.00 84 1015.0
20260905223454 23 334 6.4 9.7 0.00 0.00 0.00 82 1015.0
20260905222950 24 6 3.2 9.7 0.00 0.00 0.00 82 1015.0
20260905222449 24 16 1.6 9.7 0.00 0.00 0.00 81 1014.9
20260905221944 24 52 3.2 4.8 0.00 0.00 0.00 81 1014.8
20260905221441 24 303 1.6 16.1 0.00 0.00 0.00 80 1014.9
20260905220937 24 83 3.2 9.7 0.00 0.00 0.00 80 1014.9
20260905220433 25 1 3.2 6.4 0.00 0.00 0.00 80 1014.9
20260905215932 25 128 3.2 9.7 0.00 0.00 0.00 80 1014.7
20260905215427 26 318 3.2 6.4 0.00 0.00 0.00 78 1014.7
20260905214924 27 312 3.2 8.0 0.00 0.00 0.00 74 1014.8
20260905214420 26 312 1.6 6.4 0.00 0.00 0.00 76 1014.6
20260905213919 26 314 0.0 4.8 0.00 0.00 0.00 76 1014.6
20260905213416 26 13 3.2 11.3 0.00 0.00 0.00 74 1014.7
20260905212911 26 358 3.2 8.0 0.00 0.00 0.00 74 1014.5
20260905212406 26 187 1.6 6.4 0.00 0.00 0.00 75 1014.2
20260905211905 25 317 6.4 9.7 0.00 0.00 0.00 78 1014.2
20260905211401 26 317 4.8 6.4 0.00 0.00 0.00 78 1014.3
20260905210857 26 4 3.2 9.7 0.00 0.00 0.00 78 1014.3
20260905210357 26 296 0.0 4.8 0.00 0.00 0.00 79 1014.3
20260905205856 26 302 1.6 8.0 0.00 0.00 0.00 80 1014.3
20260905205351 26 280 1.6 3.2 0.00 0.00 0.00 78 1014.3
20260905204849 27 343 4.8 8.0 0.00 0.00 0.00 74 1014.2
20260905204346 27 31 3.2 6.4 0.00 0.00 0.00 73 1014.1
20260905203844 27 302 3.2 6.4 0.00 0.00 0.00 77 1014.2
20260905203341 26 62 0.0 4.8 0.00 0.00 0.00 77 1014.3
20260905202836 27 2 3.2 6.4 0.00 0.00 0.00 73 1014.2
20260905202331 28 330 4.8 9.7 0.00 0.00 0.00 70 1014.2
20260905201827 27 344 3.2 9.7 0.00 0.00 0.00 70 1014.1
20260905201323 27 275 0.0 11.3 0.00 0.00 0.00 72 1014.2
20260905200822 27 335 3.2 8.0 0.00 0.00 0.00 72 1014.0
20260905200318 27 319 3.2 6.4 0.00 0.00 0.00 72 1014.4
20260905195816 27 313 3.2 4.8 0.00 0.00 0.00 73 1014.3
20260905195311 26 353 1.6 8.0 0.00 0.00 0.00 75 1014.2
20260905194807 27 94 4.8 6.4 0.00 0.00 0.00 74 1014.3
20260905194307 26 349 6.4 6.4 0.00 0.00 0.00 75 1014.4
20260905193806 26 354 3.2 6.4 0.00 0.00 0.00 76 1014.6
20260905193301 26 357 3.2 8.0 0.00 0.00 0.00 77 1014.6
20260905192756 26 343 1.6 4.8 0.00 0.00 0.00 78 1014.8
20260905192252 26 0 0.0 8.0 0.00 0.00 0.00 79 1014.6
20260905191751 25 338 0.0 3.2 0.00 0.00 0.00 80 1014.7
20260905191250 25 329 0.0 9.7 0.00 0.00 0.00 79 1014.6
20260905190749 26 331 4.8 4.8 0.00 0.00 0.00 78 1014.8
20260905190248 25 142 1.6 1.6 0.00 0.00 0.00 82 1014.9
20260905185747 25 353 3.2 4.8 0.00 0.00 0.00 83 1014.9
20260905185242 24 356 3.2 4.8 0.00 0.00 0.00 84 1014.8
20260905184736 24 333 4.8 4.8 0.00 0.00 0.00 84 1014.8
20260905184236 24 5 1.6 4.8 0.00 0.00 0.00 84 1015.1
20260905183735 25 335 1.6 6.4 0.00 0.00 0.00 84 1015.1
20260905183231 25 95 4.8 4.8 0.00 0.00 0.00 84 1015.0
20260905182730 25 354 0.0 6.4 0.00 0.00 0.00 84 1014.9
20260905182230 25 328 0.0 3.2 0.00 0.00 0.00 84 1015.0
20260905181725 25 11 1.6 8.0 0.00 0.00 0.00 83 1015.0
20260905181224 25 307 3.2 9.7 0.00 0.00 0.00 83 1014.8
20260905180719 25 296 1.6 4.8 0.00 0.00 0.00 83 1015.0
20260905180215 25 33 1.6 4.8 0.00 0.00 0.00 83 1014.7
20260905175714 25 86 1.6 4.8 0.00 0.00 0.00 83 1014.9
20260905175209 25 318 1.6 4.8 0.00 0.00 0.00 84 1014.7
20260905174704 25 343 1.6 3.2 0.00 0.00 0.00 84 1014.7
20260905174200 25 357 3.2 6.4 0.00 0.00 0.00 83 1014.6
20260905173656 25 313 4.8 6.4 0.00 0.00 0.00 83 1014.7
20260905173152 25 312 4.8 4.8 0.00 0.00 0.00 83 1014.8
20260905172651 24 348 3.2 6.4 0.00 0.00 0.00 84 1014.7
20260905172145 24 284 3.2 4.8 0.00 0.00 0.00 85 1014.6
20260905171641 24 342 3.2 6.4 0.00 0.00 0.00 85 1014.9
20260905171137 23 324 0.0 6.4 0.00 0.00 0.00 86 1015.1
20260905170634 23 93 1.6 6.4 0.00 0.00 0.00 87 1015.0
20260905170129 23 315 3.2 8.0 0.00 0.00 0.00 87 1015.0
20260905165629 23 308 3.2 6.4 0.00 0.00 0.00 87 1015.1
20260905165124 23 133 0.0 8.0 0.00 0.00 0.00 87 1015.2
20260905164619 23 359 1.6 4.8 0.00 0.00 0.00 88 1015.4
20260905164118 23 352 4.8 6.4 0.00 0.00 0.00 87 1015.2
20260905163615 23 337 1.6 6.4 0.00 0.00 0.00 87 1015.1
20260905163111 23 348 4.8 6.4 0.00 0.00 0.00 87 1015.0
20260905162607 23 337 3.2 6.4 0.00 0.00 0.00 86 1015.1
20260905162106 24 349 3.2 3.2 0.00 0.00 0.00 86 1015.3
20260905161606 24 13 3.2 6.4 0.00 0.00 0.00 86 1015.2
20260905161104 24 318 0.0 6.4 0.00 0.00 0.00 86 1015.1
20260905160603 24 310 3.2 4.8 0.00 0.00 0.00 85 1015.0
20260905155557 24 40 3.2 8.0 0.00 0.00 0.00 86 1015.0
20260905155055 24 347 4.8 8.0 0.00 0.00 0.00 86 1014.8
20260905154551 24 297 3.2 6.4 0.00 0.00 0.00 86 1014.8
20260905154046 24 349 3.2 9.7 0.00 0.00 0.00 86 1014.5
20260905153542 24 19 3.2 9.7 0.00 0.00 0.00 86 1014.8
20260905153042 24 315 0.0 6.4 0.00 0.00 0.00 87 1014.6
20260905152537 23 315 3.2 6.4 0.00 0.00 0.00 88 1014.4
20260905152032 23 287 1.6 6.4 0.00 0.00 0.00 89 1014.5
20260905151527 23 343 0.0 3.2 0.00 0.00 0.00 89 1014.6
20260905151022 23 329 8.0 8.0 0.00 0.00 0.00 88 1014.3
20260905150518 23 308 3.2 4.8 0.00 0.00 0.00 89 1014.5
20260905150015 23 279 3.2 4.8 0.00 0.00 0.00 88 1014.4
20260905145509 24 343 3.2 6.4 0.00 0.00 0.00 87 1014.3
20260905145008 24 3 3.2 6.4 0.00 0.00 0.00 87 1014.4
20260905144504 24 293 3.2 8.0 0.00 0.00 0.00 87 1014.4
20260905144002 24 320 3.2 9.7 0.00 0.00 0.00 87 1014.4
20260905143501 24 255 0.0 6.4 0.00 0.00 0.00 88 1014.5
20260905142956 24 323 1.6 4.8 0.00 0.00 0.00 88 1014.2
20260905142455 24 344 3.2 8.0 0.00 0.00 0.00 88 1014.3
20260905141951 24 185 1.6 11.3 0.00 0.00 0.00 88 1014.1
20260905141445 24 15 3.2 6.4 0.00 0.00 0.00 90 1014.4
20260905140942 23 243 1.6 6.4 0.00 0.00 0.00 91 1014.1
20260905140437 23 330 1.6 6.4 0.00 0.00 0.00 93 1014.1
20260905135935 23 341 4.8 4.8 0.00 0.00 0.00 94 1014.1
20260905135431 22 327 1.6 3.2 0.00 0.00 0.00 94 1014.2
20260905134926 22 180 3.2 8.0 0.00 0.00 0.00 95 1014.3
20260905134426 22 340 4.8 6.4 0.00 0.00 0.00 95 1014.0
20260905133920 22 9 3.2 6.4 0.00 0.00 0.00 95 1014.1
20260905133420 22 271 3.2 6.4 0.00 0.00 0.00 95 1014.1
20260905132920 22 333 4.8 9.7 0.00 0.00 0.00 96 1014.1
20260905132415 22 71 1.6 4.8 0.00 0.00 0.00 96 1014.3
20260905131910 22 262 3.2 4.8 0.00 0.00 0.00 97 1014.5
20260905131406 22 15 0.0 4.8 0.00 0.00 0.00 97 1014.4
20260905130900 22 315 0.0 4.8 0.00 0.00 0.00 97 1014.0
20260905130359 22 352 4.8 8.0 0.00 0.00 0.00 98 1013.8
20260905125855 22 314 0.0 3.2 0.00 0.00 0.00 98 1013.7
20260905125349 22 356 0.0 4.8 0.00 0.00 0.00 98 1013.7
20260905124845 22 330 0.0 3.2 0.00 0.00 0.00 98 1013.8